RH
99 98 99 99 99 99 99 99 98 98 98 97 97 98 97 97 95 89 98 88 88 85 75 74 73 72 72 73 73 72 71 70 69 68 71 70 67 69 73 78 79 74 69
97 98 98 99 99 99 98 98 97 98 98 98 98 98 96 95 95 90 94 94 89 88 83 76 73 73 73 73 72 71 70 70 69 69 69 68 69 69 76 80 78 70 66
90 92 96 98 98 99 98 99 98 98 99 97 98 98 96 93 92 88 89 91 88 90 88 83 79 75 74 73 72 72 71 70 70 67 68 70 68 70 74 74 71 72 65
92 95 96 98 95 99 99 98 98 99 98 98 97 98 90 88 85 87 84 86 87 82 85 87 84 80 78 73 72 72 70 69 67 69 67 68 67 69 69 70 70 66 65
94 97 98 99 98 100 100 99 98 99 99 98 96 93 90 85 80 74 78 80 83 81 79 82 87 84 81 78 72 71 70 69 69 70 70 69 70 69 71 68 68 68 68
95 97 98 98 99 100 99 99 99 98 99 97 90 85 83 83 81 78 75 74 75 76 75 78 83 81 85 81 77 71 69 67 69 69 71 70 70 70 68 70 71 68 68
95 97 98 98 98 99 97 97 98 97 95 97 99 95 92 82 79 76 75 74 80 76 76 78 78 79 88 85 81 74 70 69 67 71 71 72 71 71 72 70 71 70 69
91 92 91 93 96 98 96 96 96 96 95 94 97 94 94 94 87 78 73 74 73 76 77 75 76 77 85 84 86 81 74 70 69 70 71 72 72 72 73 71 72 70 69
82 83 84 92 96 98 99 95 98 95 97 96 96 97 93 96 95 86 88 84 80 90 82 80 76 74 78 82 83 83 82 80 74 72 71 73 72 72 74 73 72 71 70
82 84 87 91 95 98 97 97 97 97 99 98 97 98 98 95 95 90 84 85 81 80 82 79 78 76 75 78 80 82 85 87 82 76 76 74 73 73 73 72 71 72 70
84 84 89 92 94 96 94 94 95 97 98 100 99 94 96 97 94 95 93 84 93 92 80 83 77 80 74 76 75 78 86 88 86 82 78 77 74 71 72 72 71 71 71
88 87 84 88 90 91 92 94 95 95 97 98 99 99 97 96 97 97 96 92 92 90 96 90 90 84 81 81 77 80 87 89 85 83 84 82 80 78 77 79 79 72 71
89 88 85 84 87 86 88 92 94 96 97 98 97 98 98 96 95 94 96 94 95 95 98 97 95 92 84 85 81 86 87 90 87 85 86 84 84 84 83 80 76 72 70
92 87 85 85 83 81 87 90 95 96 96 98 97 97 98 97 96 95 96 98 95 92 85 94 98 98 93 93 93 92 88 91 89 90 88 89 90 88 85 85 82 80 77
85 87 87 82 78 79 83 89 94 90 93 96 97 98 98 97 98 96 96 98 98 97 92 91 97 97 97 94 92 87 86 86 92 90 96 95 93 90 89 88 82 84 83
78 82 83 83 83 81 83 89 93 91 92 94 94 91 91 93 96 97 97 98 96 97 96 88 89 94 96 95 92 91 86 87 93 93 95 95 95 92 92 89 86 86 83
76 80 82 84 83 81 81 87 91 90 90 91 92 94 94 95 98 98 98 98 97 97 98 89 87 87 88 92 92 94 90 88 87 95 94 96 97 95 92 92 91 88 83
78 77 80 81 80 78 83 86 82 81 91 92 92 95 96 95 97 98 98 96 96 94 98 98 89 90 88 82 90 94 96 93 92 91 94 94 97 97 95 95 94 91 89
74 75 77 81 82 84 84 85 90 90 92 92 92 92 87 87 94 96 97 96 94 93 96 98 96 91 90 88 89 90 93 94 92 89 95 94 95 96 96 95 94 94 94
77 79 82 84 87 88 89 91 91 93 94 94 94 92 88 90 93 96 95 95 95 98 97 97 98 96 91 86 87 91 91 94 95 94 95 94 94 96 95 95 95 94 93
79 85 83 90 91 89 90 94 97 95 94 93 90 92 95 95 95 96 97 96 99 99 98 98 98 98 94 93 92 92 95 92 99 99 98 98 98 97 97 95 94 93 92
80 83 88 92 93 88 88 94 100 97 95 96 94 91 93 91 94 87 96 98 99 98 98 99 98 98 97 96 94 94 95 100 100 99 100 100 97 98 96 94 92 93 92
90 92 94 94 94 94 91 95 92 95 98 97 97 96 95 93 92 95 97 98 99 99 99 98 99 98 98 97 96 98 98 96 95 100 96 99 100 100 98 96 94 93 93
96 96 96 96 94 88 88 90 92 95 97 95 92 91 93 93 95 99 100 100 100 100 99 100 99 98 97 94 96 94 97 100 100 99 100 98 100 99 100 98 94 95 96
87 91 91 91 90 91 91 92 94 95 96 94 90 88 85 90 92 92 100 100 100 100 99 96 96 97 98 97 97 100 99 98 99 99 99 96 99 98 99 99 99 100 100
94 96 95 93 93 92 88 92 93 90 89 95 94 93 91 94 93 96 100 100 100 100 100 100 100 99 99 100 98 96 98 98 98 98 99 97 98 96 98 99 99 100 99
Wind_Speed
3 2 3 4 4 4 5 5 5 5 5 5 5 5 6 5 5 3 3 13 15 16 17 16 16 16 15 14 13 14 14 13 13 14 13 13 13 12 9 8 10 8 8
5 4 3 3 4 4 4 5 6 5 5 4 6 6 8 6 5 6 4 5 16 16 17 18 18 17 16 15 14 13 13 14 14 14 13 13 13 13 10 10 11 11 10
7 6 5 5 6 4 5 4 5 4 4 4 8 6 6 9 7 7 6 6 8 16 16 18 18 19 18 17 17 16 14 14 14 14 13 13 13 13 12 11 10 12 12
3 2 3 4 4 3 3 4 5 6 6 6 7 6 7 7 10 9 9 8 7 8 14 16 17 18 19 20 19 19 17 16 16 15 14 13 13 14 13 11 13 13 14
2 1 3 3 3 3 4 5 6 5 5 6 7 8 8 8 10 9 12 12 13 12 9 17 19 19 20 20 21 21 19 19 17 16 15 14 13 14 14 14 14 14 14
5 3 3 3 3 2 3 3 4 4 5 7 8 9 9 9 8 8 10 10 12 14 13 14 12 13 19 21 21 22 21 20 19 19 17 16 15 15 14 14 14 15 14
7 6 4 5 4 3 4 4 3 5 5 3 7 6 8 9 9 8 9 10 11 12 13 12 10 10 11 22 23 24 24 23 21 20 19 18 17 16 15 15 16 16 15
6 4 4 4 3 2 3 4 4 2 2 3 4 8 7 4 4 8 9 8 11 10 12 14 14 14 11 11 16 25 26 25 25 23 22 20 19 19 17 17 17 17 17
6 7 7 5 5 2 2 4 3 4 4 2 3 3 5 4 4 2 6 7 8 7 9 10 12 13 13 12 15 20 24 22 23 25 24 23 21 20 20 18 18 17 17
7 6 6 6 5 4 5 4 4 3 3 5 3 2 5 9 9 12 4 4 8 11 12 10 12 14 14 12 18 21 22 21 20 23 25 26 25 23 22 20 19 19 19
5 6 5 5 5 4 4 5 5 4 2 2 3 5 4 4 7 8 14 10 3 4 8 10 11 10 13 12 12 16 20 22 23 21 25 26 27 26 24 24 22 20 21
3 3 4 4 3 3 3 3 4 4 4 3 2 3 1 4 5 8 10 11 11 6 4 6 7 7 8 10 14 19 22 23 26 25 24 27 28 28 27 25 26 25 23
2 3 3 3 1 2 3 3 3 4 3 3 5 4 3 4 3 6 7 7 6 4 4 5 7 7 8 7 10 14 17 21 25 25 26 27 27 28 28 28 27 27 25
3 3 5 5 5 5 4 3 2 3 4 4 6 5 3 2 2 2 5 8 7 4 6 7 2 5 7 8 13 18 15 24 26 27 26 26 27 28 28 28 26 25 26
4 6 6 7 7 6 6 5 4 5 4 4 6 5 4 4 4 3 6 5 7 6 5 4 4 4 5 7 9 11 13 18 22 24 23 24 26 28 28 28 27 24 23
5 7 7 7 7 7 7 6 5 6 6 5 5 6 5 5 5 4 6 5 4 8 9 4 4 3 5 7 8 10 13 20 21 25 28 28 29 31 28 27 26 25 23
7 7 7 7 8 9 8 6 8 8 8 7 6 7 8 7 5 4 4 4 5 5 9 8 5 5 9 11 10 8 10 12 12 24 25 27 27 30 29 27 25 26 24
6 7 7 7 8 9 9 8 11 10 7 8 9 6 9 6 7 6 5 6 6 6 7 14 8 4 8 10 11 11 8 9 11 17 27 28 26 26 28 28 25 25 23
6 6 5 6 7 7 8 7 7 9 8 8 7 7 10 7 7 4 5 5 5 6 7 8 11 6 5 7 10 10 10 12 11 18 25 30 32 30 31 30 30 28 28
6 6 6 6 6 7 6 6 6 6 6 6 8 9 9 7 7 5 7 8 6 6 6 8 9 9 7 5 7 9 12 10 11 9 14 21 28 32 33 33 33 33 31
5 5 8 6 6 6 5 6 5 4 4 7 12 9 7 7 9 9 7 8 6 6 6 7 8 9 9 8 9 5 11 12 4 5 8 11 11 13 18 31 31 35 34
7 8 8 8 8 6 10 11 7 6 8 7 10 12 9 11 9 15 16 14 11 8 8 6 7 9 12 9 8 9 12 2 3 3 2 2 9 11 13 16 32 36 35
7 8 8 6 8 8 11 11 12 7 6 7 9 11 11 8 13 11 11 13 12 14 13 9 9 9 12 10 9 11 14 10 6 1 7 3 4 7 5 14 35 36 35
8 8 7 7 8 8 13 15 14 9 8 9 10 11 13 13 9 9 9 9 9 9 8 6 7 9 11 11 11 13 9 2 6 6 4 5 3 5 5 10 33 33 32
11 9 9 9 9 9 13 16 14 9 9 11 10 10 12 12 11 13 10 10 9 8 7 10 10 12 15 19 12 4 4 7 3 3 5 7 2 9 7 7 11 29 28
9 7 9 9 10 11 13 16 15 10 14 10 10 11 15 14 14 12 9 8 8 7 4 4 3 5 7 6 9 7 8 8 7 4 1 6 8 6 5 3 8 9 11
Wind_Direction
228 232 247 227 212 196 210 215 222 234 242 232 224 237 257 248 216 231 231 224 216 221 222 218 215 209 209 207 211 208 209 208 210 211 209 209 207 204 198 159 148 140 169
215 212 219 238 258 234 237 228 226 234 240 227 237 233 246 251 223 211 216 233 223 220 222 220 219 216 209 207 209 210 206 205 206 206 204 207 207 205 198 168 152 162 181
227 209 211 214 228 216 234 235 243 240 244 234 244 230 229 235 231 212 206 218 225 225 226 223 220 216 212 209 207 207 209 212 210 207 203 202 203 199 199 185 172 178 181
247 253 248 233 235 228 237 241 252 255 250 241 254 245 237 229 230 215 203 199 201 225 225 226 223 220 216 211 208 208 206 212 215 210 208 206 203 195 193 185 186 181 175
25 251 275 291 311 275 252 251 257 244 254 252 253 256 247 237 233 225 213 210 202 201 212 220 216 217 216 215 212 210 207 210 213 210 207 208 205 200 188 190 191 182 176
23 25 1 344 331 290 289 287 282 263 260 268 270 266 252 248 246 227 227 222 217 211 206 207 210 216 211 214 216 215 212 213 211 212 205 206 205 201 197 191 189 182 181
20 14 4 356 358 355 335 314 289 312 324 307 299 287 260 256 243 233 227 225 228 219 218 211 207 208 210 211 213 217 217 215 214 210 204 200 204 200 196 197 190 187 181
16 17 360 333 332 336 344 351 325 309 285 324 302 312 303 314 279 259 246 236 235 223 219 215 213 208 200 206 206 213 218 215 211 211 204 200 199 201 196 197 197 191 183
355 358 350 344 331 333 309 315 302 320 306 304 245 264 309 288 315 245 236 233 227 217 229 231 228 219 209 204 208 210 212 218 216 207 204 199 199 200 193 197 199 194 188
4 8 360 3 5 0 359 352 340 329 334 314 308 267 291 296 296 299 279 288 250 239 227 223 215 218 209 207 207 210 206 204 216 213 201 197 196 196 193 197 199 197 189
11 14 26 33 30 17 344 326 326 330 274 287 315 319 313 316 297 294 294 290 290 259 242 227 225 215 221 216 214 213 206 201 202 211 204 198 196 195 193 194 193 197 194
341 3 21 35 33 12 340 312 302 302 302 273 224 218 110 330 329 318 307 310 295 279 227 238 244 241 228 226 225 216 204 202 203 205 205 199 195 194 194 195 197 195 196
309 331 352 343 307 277 296 306 318 319 304 252 241 239 202 177 196 303 292 297 302 317 307 249 229 213 218 221 226 221 218 210 206 205 207 197 194 192 193 194 197 198 194
265 250 264 244 249 258 257 248 236 248 248 260 270 289 308 296 274 228 270 294 285 255 297 264 290 231 227 213 205 213 217 209 208 209 207 197 192 194 191 191 193 196 191
256 257 256 270 270 269 259 247 238 257 240 254 248 232 227 229 213 231 273 262 298 301 291 283 309 278 253 238 231 222 223 221 212 208 200 199 196 192 190 189 192 187 190
303 304 295 289 287 279 273 255 249 247 239 248 252 263 268 261 246 250 203 248 256 287 283 293 279 294 279 268 252 236 231 228 206 208 209 207 195 190 189 187 184 179 183
309 293 284 286 288 286 280 268 260 264 241 246 248 245 254 241 246 234 232 230 254 248 276 285 277 309 306 290 270 248 238 236 224 213 211 210 200 193 185 180 177 177 173
329 326 319 306 302 298 287 275 275 269 243 249 248 249 255 248 234 224 222 234 241 243 254 280 281 272 261 282 282 265 247 230 234 214 210 208 205 190 181 174 167 164 154
335 327 332 318 306 296 290 289 273 272 252 244 249 246 254 240 250 238 226 251 254 251 244 262 282 272 270 282 284 277 264 250 240 231 204 208 205 191 181 171 163 154 145
304 317 308 295 301 307 308 304 296 282 296 295 281 259 253 253 258 274 278 263 255 256 259 264 275 282 279 270 265 275 276 251 254 229 221 211 205 191 181 166 157 150 145
311 297 307 306 301 302 304 326 329 338 356 328 302 281 266 263 262 263 271 265 243 250 247 250 264 279 281 282 280 279 275 264 250 224 211 201 197 192 177 160 155 147 142
319 319 323 314 315 309 301 301 314 309 296 291 280 298 298 295 284 278 270 255 246 252 252 248 260 268 283 278 277 275 274 209 263 261 117 20 176 177 169 158 151 142 139
322 326 313 305 314 309 306 303 295 294 286 285 287 288 289 285 283 275 263 267 257 244 235 243 258 262 275 268 266 276 261 226 210 256 121 52 20 120 146 151 144 139 135
326 313 297 298 303 297 298 301 294 284 269 259 263 272 276 282 270 257 275 263 253 252 238 220 232 260 265 271 266 269 248 98 74 53 29 80 44 73 110 137 133 128 128
322 309 308 305 304 308 314 314 314 306 289 285 277 269 270 271 265 266 272 264 263 258 236 251 256 270 267 264 258 154 140 135 103 49 36 99 75 96 88 99 115 122 131
301 302 301 301 302 311 316 312 317 311 306 303 293 284 280 273 266 252 253 252 267 267 237 254 256 287 304 281 195 230 160 144 128 93 170 97 131 109 69 40 110 122 132